TimePST,TemperatureF,Dew PointF,Humidity,Sea Level PressureIn,VisibilityMPH,Wind Direction,Wind SpeedMPH,Gust SpeedMPH,PrecipitationIn,Events,Conditions,WindDirDegrees,DateUTC
12:56 AM,50.0,45.0,83,30.04,10.0,West,20.7,-,N/A,,Overcast,270,2012-03-06 08:56:00
1:56 AM,48.9,45.0,86,30.02,8.0,West,13.8,-,0.00,,Light Drizzle,270,2012-03-06 09:56:00
2:56 AM,50.0,46.0,86,29.99,5.0,West,8.1,-,0.00,Rain,Light Rain,260,2012-03-06 10:56:00
3:56 AM,46.4,44.6,93,29.97,8.0,WNW,27.6,43.7,N/A,,Overcast,290,2012-03-06 11:56:00
4:56 AM,46.9,37.9,71,29.99,10.0,West,26.5,33.4,0.00,,Mostly Cloudy,280,2012-03-06 12:56:00
5:56 AM,46.0,37.0,71,30.00,10.0,WNW,27.6,36.8,N/A,,Scattered Clouds,290,2012-03-06 13:56:00
6:56 AM,46.0,34.0,63,30.02,10.0,WNW,31.1,40.3,N/A,,Partly Cloudy,290,2012-03-06 14:56:00
7:56 AM,46.9,34.0,61,30.01,10.0,West,31.1,41.4,N/A,,Partly Cloudy,280,2012-03-06 15:56:00
8:56 AM,48.9,32.0,52,30.04,10.0,WNW,18.4,27.6,N/A,,Partly Cloudy,300,2012-03-06 16:56:00
9:56 AM,50.0,33.1,52,30.05,10.0,West,25.3,36.8,N/A,,Partly Cloudy,280,2012-03-06 17:56:00
10:56 AM,51.1,34.0,52,30.06,10.0,West,29.9,38.0,N/A,,Partly Cloudy,280,2012-03-06 18:56:00
11:56 AM,52.0,32.0,47,30.05,10.0,West,32.2,38.0,N/A,,Partly Cloudy,280,2012-03-06 19:56:00
12:56 PM,53.1,28.9,40,30.03,10.0,West,27.6,35.7,N/A,,Partly Cloudy,280,2012-03-06 20:56:00
1:56 PM,52.0,30.0,43,30.01,10.0,WNW,27.6,34.5,N/A,,Partly Cloudy,290,2012-03-06 21:56:00
2:56 PM,53.6,30.2,41,30.00,10.0,WNW,26.5,33.4,N/A,,Partly Cloudy,290,2012-03-06 22:56:00
3:56 PM,53.1,28.9,40,30.01,10.0,WNW,27.6,36.8,N/A,,Partly Cloudy,290,2012-03-06 23:56:00
4:56 PM,51.1,33.1,50,30.00,10.0,West,29.9,39.1,N/A,,Partly Cloudy,280,2012-03-07 00:56:00
5:56 PM,48.9,34.0,56,30.02,10.0,West,21.9,27.6,N/A,,Partly Cloudy,280,2012-03-07 01:56:00
6:56 PM,48.0,34.0,58,30.02,10.0,West,16.1,24.2,N/A,,Partly Cloudy,280,2012-03-07 02:56:00
7:56 PM,46.9,32.0,56,30.04,10.0,WNW,9.2,-,N/A,,Partly Cloudy,290,2012-03-07 03:56:00
8:56 PM,48.0,30.9,52,30.05,10.0,NW,11.5,-,N/A,,Partly Cloudy,320,2012-03-07 04:56:00
9:56 PM,50.0,28.0,43,30.06,10.0,NNW,12.7,-,N/A,,Partly Cloudy,340,2012-03-07 05:56:00
10:56 PM,50.0,25.0,38,30.06,10.0,NNW,18.4,-,N/A,,Clear,340,2012-03-07 06:56:00
11:56 PM,50.0,26.1,39,30.07,10.0,NNW,21.9,-,N/A,,Clear,340,2012-03-07 07:56:00